ARIANE 2 DEB

基本信息
目录编号:
26728
目录名称:
ARIANE 2 DEB
国际标识:
1989-006F
轨道中心:
EARTH
物体状态:
在轨
发射日期:
1989-01-27 UTC
轨道信息
数据来源: 国际轨道数据
星历时间: 2026-07-13T21:07:05+0800
半长轴: 22945.52km
偏心率: 0.7012974
轨道倾角: 7.725°
近地点辐角: 200.391°
升交点赤经: 192.548°
平近点角: 104.019°
近地点: 475.749km
远地点: 32659.017km
周期: 576.510分钟
每日圈数: 2.49779
详细信息
发射场:
FRGUI
轨道高度:
LEO
数据来源:
AOE Integration Group
参考系:
TEME
时间系统:
UTC
历元类型:
SGP4
2D轨道图
3D轨道图
轨道高度分析图
轨道倾角分析图
轨道综合分析图
查看轨道综合分析图